INTELSAT 33E DEB, 61991

Orbit data source: Space-Track

INTELSAT 33E DEB, 61991 is space debris in GEO originally from a launch on Wed, 24 Aug 2016 UTC launched from the French Guiana (FRGUI). Debris objects in space refer to the collection of defunct objects orbiting the Earth. Examples of debris include non-operational satellites, rocket bodies, and fragments generated from explosions, collisions, or faulty payload assembly.

Loading next visibility...
Identifier
61991, 2016-053H
Orbit
GEO
Country
Flag of UnknownUnknown / ITSO
Related business
Manufacturer
Boeing/ES
Mission
Spacecraft
Bus & Motor
Unknown
Mass
Unknown
Launch date (UTC)
2016-08-24 (9 years ago)
Launch vehicle
Unknown
Launch site
French Guiana (FRGUI)
Object type
Payload
Rocket body
Debris
Shape & HBR
Unknown shape, 1.1 m
Radar Cross Section
RCS unknown

Expand to show TLE details & history
Last TLE update: 1 day ago

TLE from 1 day ago
0 INTELSAT 33E DEB
1 61991U 16053H   25344.49073672  .00000019  00000-0  00000-0 0  9997
2 61991   1.1915  97.5808 0121696 243.3816 114.5069  1.02041138  4262
Epoch: 2025-12-10T11:46Z
TLE epoch observation values (Epoch: 2025-12-10T11:46:39.652Z)
Latitude
Longitude
-159.403°
Altitude
35,512.355 km
Speed
3.077 km/s
True Right ascension
06h 26m 53s
True Declination
0° 00' 00"
Sunlit
Object was in daylight at epoch
Visualization orbit readout
Latitude
Unknown
Longitude
Unknown
Altitude
Unknown
Speed
Unknown
Apparent Right ascension
Unknown
Apparent Declination
Unknown
Sunlit
N/A
Visualization observer readout
Local Sidereal Time
13:12:58
Azimuth
Unknown
Elevation
Unknown
Doppler factor
Unknown
Orbital elements
Apogee altitude
35,806.036 km
Perigee altitude
34,791.652 km
Semi-major axis
41,676.981 km
Eccentricity
0.01217
Inclination
1.1915°
RAAN
97.5808°
Arg. of periapsis
243.3816°
True anomaly
115.76774°
Mean anomaly
114.5069°
Eccentric anomaly
115.13813°
Mean motion
0.25509 °/min
Orbital period
1,411.25 mins
BSTAR
0
Loading maneuver chart data...
Computing Atmospheric mass density...
Loading historical data...
Loading historical data...
Loading historical data...
Loading historical data...
Loading historical data...
Loading historical data...
Loading historical data...

Documentation

Showing up to 5 results
|